• In Netherlands
  • List of Countries
  • For 7 days
  • Water Temperature
  • Satellite Maps
  • Weather Map
  • Weather Widgets
  • user-avatar
    Login

    Hourly Weather La-Plata

    Today, 19 November, Sunday

    Time Temperature Precipitation Wind Pressure Humidity
    00:00 +14°C° 0 mm 5 mps 755 mmHg 35%
    01:00 +14°C° 0 mm 6 mps 754 mmHg 34%
    02:00 +14°C° 0 mm 7 mps 754 mmHg 33%
    03:00 +14°C° 0 mm 7 mps 754 mmHg 32%
    04:00 +15°C° 0 mm 8 mps 754 mmHg 32%
    05:00 +15°C° 0 mm 8 mps 754 mmHg 32%
    06:00 +16°C° 0 mm 9 mps 754 mmHg 33%
    07:00 +17°C° 0 mm 9 mps 754 mmHg 33%
    08:00 +19°C° 0 mm 10 mps 754 mmHg 33%
    09:00 +21°C° 0 mm 9 mps 754 mmHg 35%
    10:00 +22°C° 0 mm 8 mps 754 mmHg 37%
    11:00 +24°C° 0 mm 6 mps 754 mmHg 38%
    12:00 +24°C° 0 mm 6 mps 754 mmHg 40%
    13:00 +24°C° 0 mm 6 mps 755 mmHg 41%
    14:00 +24°C° 0 mm 6 mps 755 mmHg 43%
    15:00 +23°C° 0 mm 6 mps 755 mmHg 47%
    16:00 +22°C° 0 mm 6 mps 755 mmHg 51%
    17:00 +21°C° 0 mm 7 mps 756 mmHg 55%
    18:00 +18°C° 0 mm 7 mps 756 mmHg 57%
    19:00 +16°C° 0 mm 7 mps 757 mmHg 59%
    20:00 +15°C° 0 mm 6 mps 758 mmHg 62%
    21:00 +14°C° 0 mm 6 mps 759 mmHg 61%
    22:00 +13°C° 0 mm 6 mps 759 mmHg 61%
    23:00 +11°C° 0 mm 6 mps 760 mmHg 61%

    Tomorrow, 20 November, Monday

    Time Temperature Precipitation Wind Pressure Humidity
    00:00 +10°C° 0 mm 5 mps 759 mmHg 62%
    01:00 +10°C° 0 mm 5 mps 759 mmHg 63%
    02:00 +10°C° 0 mm 5 mps 759 mmHg 64%
    03:00 +10°C° 0 mm 5 mps 759 mmHg 65%
    04:00 +10°C° 0 mm 5 mps 759 mmHg 66%
    05:00 +12°C° 0 mm 5 mps 759 mmHg 67%
    06:00 +12°C° 0.6 mm 5 mps 759 mmHg 71%
    07:00 +13°C° 0.6 mm 6 mps 759 mmHg 75%
    08:00 +14°C° 0.6 mm 6 mps 759 mmHg 79%
    09:00 +15°C° 0.1 mm 6 mps 759 mmHg 76%
    10:00 +16°C° 0.1 mm 6 mps 759 mmHg 73%
    11:00 +17°C° 0.1 mm 6 mps 758 mmHg 70%
    12:00 +17°C° 0.6 mm 5 mps 758 mmHg 73%
    13:00 +18°C° 0.6 mm 4 mps 757 mmHg 75%
    14:00 +18°C° 0.6 mm 3 mps 757 mmHg 78%
    15:00 +18°C° 0.2 mm 2 mps 757 mmHg 78%
    16:00 +18°C° 0.2 mm 2 mps 757 mmHg 78%
    17:00 +18°C° 0.2 mm 2 mps 756 mmHg 79%
    18:00 +17°C° 0 mm 2 mps 757 mmHg 80%
    19:00 +16°C° 0 mm 2 mps 757 mmHg 82%
    20:00 +16°C° 0 mm 2 mps 757 mmHg 84%
    21:00 +14°C° 0 mm 4 mps 758 mmHg 81%
    22:00 +14°C° 0 mm 5 mps 759 mmHg 79%
    23:00 +12°C° 0 mm 7 mps 760 mmHg 77%

    Day after tomorrow, 21 November, Tuesday

    Time Temperature Precipitation Wind Pressure Humidity
    00:00 +11°C° 0 mm 6 mps 760 mmHg 74%
    01:00 +10°C° 0 mm 6 mps 761 mmHg 71%
    02:00 +10°C° 0 mm 5 mps 761 mmHg 68%
    03:00 +9°C° 0 mm 5 mps 761 mmHg 70%
    04:00 +8°C° 0 mm 5 mps 761 mmHg 72%
    05:00 +8°C° 0 mm 4 mps 762 mmHg 75%
    06:00 +11°C° 0 mm 4 mps 762 mmHg 66%
    07:00 +13°C° 0 mm 4 mps 762 mmHg 57%
    08:00 +15°C° 0 mm 4 mps 763 mmHg 48%
    09:00 +18°C° 0 mm 3 mps 763 mmHg 43%
    10:00 +19°C° 0 mm 3 mps 762 mmHg 38%
    11:00 +20°C° 0 mm 3 mps 762 mmHg 33%
    12:00 +21°C° 0 mm 3 mps 762 mmHg 32%
    13:00 +22°C° 0 mm 3 mps 761 mmHg 32%
    14:00 +24°C° 0 mm 3 mps 761 mmHg 31%
    15:00 +22°C° 0 mm 3 mps 761 mmHg 35%
    16:00 +22°C° 0 mm 3 mps 761 mmHg 38%
    17:00 +21°C° 0 mm 3 mps 761 mmHg 41%
    18:00 +20°C° 0 mm 3 mps 761 mmHg 46%
    19:00 +18°C° 0 mm 3 mps 762 mmHg 51%
    20:00 +16°C° 0 mm 3 mps 762 mmHg 56%
    21:00 +14°C° 0 mm 4 mps 762 mmHg 60%
    22:00 +14°C° 0 mm 4 mps 762 mmHg 64%
    23:00 +13°C° 0 mm 4 mps 762 mmHg 68%

    22 November, Wednesday

    Time Temperature Precipitation Wind Pressure Humidity
    00:00 +13°C° 0 mm 5 mps 761 mmHg 68%
    01:00 +13°C° 0 mm 5 mps 761 mmHg 68%
    02:00 +13°C° 0 mm 5 mps 760 mmHg 67%
    03:00 +13°C° 0 mm 5 mps 760 mmHg 66%
    04:00 +13°C° 0 mm 6 mps 760 mmHg 64%
    05:00 +13°C° 0 mm 6 mps 760 mmHg 63%
    06:00 +15°C° 0 mm 6 mps 760 mmHg 57%
    07:00 +17°C° 0 mm 6 mps 760 mmHg 52%
    08:00 +18°C° 0 mm 7 mps 760 mmHg 46%
    09:00 +21°C° 0 mm 7 mps 759 mmHg 42%
    10:00 +23°C° 0 mm 6 mps 759 mmHg 37%
    11:00 +26°C° 0 mm 6 mps 758 mmHg 33%
    12:00 +27°C° 0 mm 6 mps 758 mmHg 32%
    13:00 +28°C° 0 mm 6 mps 757 mmHg 32%
    14:00 +30°C° 0 mm 5 mps 756 mmHg 31%
    15:00 +28°C° 0.2 mm 5 mps 756 mmHg 38%
    16:00 +27°C° 0.2 mm 5 mps 755 mmHg 44%
    17:00 +26°C° 0.2 mm 4 mps 755 mmHg 50%
    18:00 +23°C° 0.4 mm 5 mps 755 mmHg 56%
    19:00 +21°C° 0.4 mm 5 mps 755 mmHg 61%
    20:00 +20°C° 0.4 mm 5 mps 755 mmHg 67%
    21:00 +19°C° 0.2 mm 6 mps 755 mmHg 67%
    22:00 +19°C° 0.2 mm 6 mps 755 mmHg 68%
    23:00 +18°C° 0.2 mm 7 mps 755 mmHg 68%

    23 November, Thursday

    Time Temperature Precipitation Wind Pressure Humidity
    00:00 +17°C° 0.2 mm 7 mps 754 mmHg 68%
    01:00 +17°C° 0.2 mm 7 mps 754 mmHg 67%
    02:00 +17°C° 0.2 mm 7 mps 754 mmHg 67%
    03:00 +16°C° 0 mm 6 mps 754 mmHg 66%
    04:00 +16°C° 0 mm 6 mps 754 mmHg 65%
    05:00 +15°C° 0 mm 6 mps 755 mmHg 64%
    06:00 +17°C° 0 mm 6 mps 755 mmHg 60%
    07:00 +21°C° 0 mm 6 mps 755 mmHg 55%
    08:00 +23°C° 0 mm 7 mps 755 mmHg 50%
    09:00 +26°C° 0 mm 6 mps 755 mmHg 43%
    10:00 +28°C° 0 mm 5 mps 754 mmHg 37%
    11:00 +30°C° 0 mm 4 mps 754 mmHg 30%
    12:00 +31°C° 0 mm 3 mps 754 mmHg 28%
    13:00 +31°C° 0 mm 3 mps 753 mmHg 26%
    14:00 +32°C° 0 mm 2 mps 753 mmHg 24%
    15:00 +31°C° 0 mm 2 mps 753 mmHg 28%
    16:00 +31°C° 0 mm 3 mps 752 mmHg 31%
    17:00 +30°C° 0 mm 3 mps 752 mmHg 35%
    18:00 +27°C° 0.2 mm 4 mps 752 mmHg 44%
    19:00 +25°C° 0.2 mm 4 mps 753 mmHg 53%
    20:00 +21°C° 0.2 mm 4 mps 753 mmHg 62%
    21:00 +20°C° 0.5 mm 4 mps 754 mmHg 66%
    22:00 +20°C° 0.5 mm 4 mps 755 mmHg 71%
    23:00 +19°C° 0.5 mm 4 mps 755 mmHg 75%

    24 November, Friday

    Time Temperature Precipitation Wind Pressure Humidity
    00:00 +17°C° 0.3 mm 5 mps 756 mmHg 78%
    01:00 +16°C° 0.3 mm 7 mps 756 mmHg 81%
    02:00 +15°C° 0.3 mm 8 mps 756 mmHg 84%
    03:00 +13°C° 0.2 mm 8 mps 757 mmHg 85%
    04:00 +14°C° 0.2 mm 7 mps 758 mmHg 85%
    05:00 +12°C° 0.2 mm 7 mps 758 mmHg 86%
    06:00 +14°C° 0 mm 7 mps 759 mmHg 83%
    07:00 +15°C° 0 mm 6 mps 759 mmHg 81%
    08:00 +15°C° 0 mm 6 mps 760 mmHg 79%
    09:00 +16°C° 0 mm 6 mps 760 mmHg 75%
    10:00 +17°C° 0 mm 5 mps 760 mmHg 72%
    11:00 +19°C° 0 mm 5 mps 760 mmHg 69%
    12:00 +19°C° 0 mm 5 mps 760 mmHg 68%
    13:00 +19°C° 0 mm 5 mps 759 mmHg 68%
    14:00 +20°C° 0 mm 5 mps 759 mmHg 68%
    15:00 +19°C° 0 mm 5 mps 759 mmHg 69%
    16:00 +19°C° 0 mm 5 mps 759 mmHg 71%
    17:00 +19°C° 0 mm 5 mps 759 mmHg 72%
    18:00 +17°C° 0.1 mm 5 mps 759 mmHg 75%
    19:00 +17°C° 0.1 mm 4 mps 759 mmHg 77%
    20:00 +17°C° 0.1 mm 4 mps 759 mmHg 80%
    21:00 +17°C° 0 mm 4 mps 759 mmHg 81%
    22:00 +17°C° 0 mm 3 mps 760 mmHg 82%
    23:00 +17°C° 0 mm 3 mps 760 mmHg 84%
    Show more